Regional Weather Roundup
Issued by NWS Cleveland, OH

Home | Current Version | Previous Version | Text Only | Print | Product List | Glossary Off
Versions: 1 2 3 4 5 6 7 8 9 10 11 12 13 14 15 16 17 18 19 20 21 22 23 24 25 26 27 28 29 30 31 32 33 34 35 36 37 38 39 40 41 42 43 44 45 46 47 48 49 50

000
ASUS41 KCLE 160400
RWRCLE
OHIO REGIONAL WEATHER ROUNDUP
NATIONAL WEATHER SERVICE WILMINGTON, OH
1100 PM EST FRI DEC 15 2017

NOTE: "FAIR" INDICATES FEW OR NO CLOUDS BELOW 12,000 FEET WITH NO
SIGNIFICANT WEATHER AND/OR OBSTRUCTIONS TO VISIBILITY.

OHZ001>008-015>018-024>027-034-035-043-044-160500-
   NORTHWEST OHIO

CITY           SKY/WX    TMP DP  RH WIND       PRES   REMARKS
DEFIANCE       FLURRIES  30  19  63 SW13      29.97S WCI  20
FINDLAY        CLOUDY    30  18  60 SW17G29   29.98S WCI  18
TOLEDO EXPRESS CLOUDY    30  21  69 SW17G25   29.94S WCI  18
TOLEDO EXEC    CLOUDY    29  20  69 SW15      29.95F WCI  18
LIMA           CLOUDY    28  20  71 SW13      30.00R WCI  17
$$

OHZ009>014-019>023-028>033-038-089-160500-
   NORTHEAST OHIO

CITY           SKY/WX    TMP DP  RH WIND       PRES   REMARKS
CLE-HOPKINS    CLOUDY    27  17  66 SW12      29.99R WCI  17
CLE-LAKEFRONT  CLOUDY    27  17  66 SW15      29.97R WCI  15
CUY CO. ARPT   CLOUDY    27  18  69 SW21      29.96R WCI  13
LORAIN-ELYRIA  CLOUDY    26  14  60 W14       29.97S WCI  14
ASHTABULA      FLURRIES  24  21  88 SW10      29.93R WCI  14
AKRON-CANTON   CLOUDY    26  15  63 W10       29.97R WCI  16
WOOSTER        NOT AVBL
MANSFIELD      CLOUDY    27  18  69 W14G23    29.97R WCI  16
YOUNGSTOWN     CLOUDY    25  16  68 W14       29.95R WCI  13
$$

OHZ042-051>053-060>062-070>072-077>081-160500-
  SOUTHWEST OHIO

CITY           SKY/WX    TMP DP  RH WIND       PRES   REMARKS
CINC-COVINGTON CLOUDY    32  23  69 SW7       30.08S WCI  26
CINC-LUNKEN    CLOUDY    32  24  72 SW7       30.12S WCI  26
HAMILTON       CLOUDY    32  24  72 SW6       30.10S WCI  26
DAYTON         NOT AVBL
WRIGHT-PAT AFB CLOUDY    30  22  71 SW9       30.06R WCI  21
DAYTON GENERAL CLOUDY    30  22  72 SW10      30.05F WCI  21
WILMINGTON     CLOUDY    28  22  78 SW8       30.06S WCI  20
$$

OHZ036-037-039>041-045>050-054>059-063>069-073>076-082>088-160500-
  CENTRAL AND SOUTHEAST OHIO

CITY           SKY/WX    TMP DP  RH WIND       PRES   REMARKS
COLUMBUS       CLOUDY    30  21  69 SW10      30.06R WCI  21
OSU AIRPORT    CLOUDY    29  22  75 SW13      30.06R WCI  19
BOLTON FIELD   NOT AVBL
RICKENBACK AFB NOT AVBL
NEWARK         CLOUDY    30  20  66 SW12G23   30.05R WCI  20
MARION         CLOUDY    29  18  63 SW15      30.01  WCI  18
LANCASTER      CLOUDY    29  20  69 W10       30.08R WCI  20
ZANESVILLE     CLOUDY    30  18  60 W8        30.06R WCI  22
NEW PHILLY     CLOUDY    29  17  61 W7        30.03R WCI  22
$$



USA.gov is the U.S. government's official web portal to all federal, state and local government web resources and services.